SCP
0 0 0 0 0 0 0 0 0 0 0 0 0 0 0 0 0 0 0 0 0 0 0 -0 0 0 -0 -0 -0 -0 0 0 0 0 0 0 0 0 0 0 0 0 0 0 0 0 0 0 0 0 0 0 0 0
0 0 0 0 0 0 0 0 0 0 0 0 0 0 0 0 0 0 0 0 0 0 0 0 0 -0 -0 -0 -0 -0 -0 0 0 0 0 0 0 0 0 0 0 0 0 0 0 0 0 0 0 0 0 0 0 0
0 0 0 0 0 0 0 0 0 0 0 0 0 0 0 0 0 0 0 0 0 0 0 0 0 0 0 0 0 -0 -0 0 0 0 0 0 0 0 0 0 0 0 0 0 0 0 0 0 0 0 0 0 0 0
0 0 0 0 0 0 0 0 0 0 0 0 0 0 0 0 0 0 0 0 0 0 0 0 0 0 0 0 0 0 0 0 0 0 0 0 0 0 0 0 0 0 0 0 0 0 0 0 0 0 0 0 0 0
0 0 0 0 0 0 0 0 0 0 0 0 0 0 0 0 0 0 0 0 0 0 0 0 0 0 0 0 0 0 0 0 0 0 0 0 0 0 0 0 0 0 0 0 0 0 0 0 0 0 0 0 0 0
0 0 0 0 0 0 0 0 0 0 0 0 0 0 0 0 0 0 0 0 0 0 0 0 0 0 0 0 0 0 0 0 0 0 0 0 0 0 0 0 0 0 0 0 0 0 0 0 0 0 0 0 0 0
0 0 0 0 0 0 0 0 0 0 0 0 0 0 0 0 0 0 0 0 0 0 0 0 0 0 0 0 0 0 0 0 0 0 0 0 0 0 0 0 0 0 0 0 0 0 0 0 0 0 0 0 0 0
0 0 0 0 0 0 0 0 0 0 0 0 0 0 0 0 0 0 0 0 0 0 0 0 0 0 0 0 0 0 0 0 0 0 0 0 0 0 0 0 0 0 0 0 0 0 0 0 0 0 0 0 0 0
0 0 0 0 0 0 0 0 0 0 0 0 0 0 0 0 0 0 0 0 0 0 0 0 0 0 0 0 0 0 0 0 0 0 0 0 0 0 0 0 0 0 0 0 0 0 0 0 0 0 0 0 0 0
0 0 0 0 0 0 0 0 0 0 0 0 0 0 0 0 0 0 0 0 0 0 0 0 0 0 0 0 0 0 0 0 0 0 0 0 0 0 0 0 0 0 0 0 0 0 0 0 0 0 0 0 0 0
0 0 0 0 0 0 0 0 0 0 0 0 0 0 0 0 0 0 0 0 0 0 0 0 0 0 0 0 0 0 0 0 0 0 0 0 0 0 0 0 0 0 0 0 0 0 0 0 0 0 0 0 0 0
0 0 0 0 0 0 0 0 0 0 0 0 0 0 0 0 0 0 0 0 0 0 0 0 0 0 0 0 0 0 0 0 0 0 0 0 0 -0 0 0 0 0 0 0 0 -0 -0 -0 -0 0 0 0 0 0
0 0 0 0 0 0 0 0 0 0 0 0 0 0 0 0 0 0 0 0 0 0 0 0 0 0 0 0 0 0 0 0 0 0 0 0 0 0 0 0 0 0 0 0 0 0 -0 0 0 0 0 0 0 0
0 0 0 0 0 0 0 0 0 0 0 0 0 0 0 0 0 0 0 0 0 0 0 0 0 0 0 0 0 0 0 0 0 0 0 0 0 0 0 0 0 0 0 0 0 0 0 0 0 0 0 0 0 0
0 0 0 0 0 0 0 0 0 0 0 0 0 0 0 0 0 0 0 0 0 0 0 0 0 0 0 0 0 0 0 0 0 -0 0 0 0 0 -0 -0 0 0 0 0 0 0 0 0 0 0 0 0 0 0
0 0 0 0 0 0 0 0 0 0 0 0 0 0 0 0 0 0 0 0 0 0 0 0 0 0 0 0 0 0 0 0 0 0 0 0 -0 -0 -0 -0 0 0 0 0 0 0 0 0 0 0 0 0 0 0
0 0 0 0 0 0 0 0 0 0 0 0 0 0 0 0 0 0 0 0 0 0 0 0 0 0 0 0 0 0 0 0 0 0 0 0 0 0 -0 0 0 0 0 0 0 0 0 0 0 0 0 0 0 0
0 0 0 0 0 0 0 0 0 0 0 0 0 0 0 0 0 0 0 0 0 0 0 0 0 0 0 0 0 0 0 0 0 0 0 0 0 0 0 0 0 0 0 0 0 0 0 0 0 0 0 0 0 0
0 0 0 0 0 0 0 0 0 0 0 0 0 0 0 0 0 0 0 0 0 0 0 0 0 0 0 0 0 0 0 0 -0 -0 -0 0 0 0 0 0 0 0 0 0 0 0 0 0 0 0 0 0 0 0
0 0 0 0 0 0 0 0 0 0 0 0 0 0 0 0 0 0 0 0 0 0 0 0 0 0 0 0 0 0 0 -0 -0 -0 0 0 0 0 0 0 0 0 0 -0 -0 0 0 0 0 0 0 0 0 0
0 0 0 0 0 0 0 0 0 0 0 0 0 0 0 0 0 0 0 0 0 0 0 0 0 0 0 0 0 0 0 0 0 0 0 0 0 0 0 0 0 0 0 0 0 -0 -0 0 0 0 0 0 0 0
0 0 0 0 0 0 0 0 0 0 0 0 0 0 0 0 0 0 0 0 0 0 0 0 0 0 0 0 0 0 0 -0 -0 0 0 0 0 0 0 0 0 0 0 0 0 -0 0 0 0 0 0 0 0 0
0 0 0 0 0 0 0 0 0 0 0 0 0 0 0 0 0 0 0 0 0 0 0 0 0 0 0 0 0 0 0 0 0 0 0 0 0 0 0 0 0 0 0 0 0 0 0 0 0 0 0 0 0 0
0 0 0 0 0 0 -0 -0 0 0 0 0 0 0 0 0 0 0 0 0 0 0 0 0 0 0 0 0 0 0 0 0 0 0 0 0 0 0 0 0 0 0 0 0 0 0 0 0 0 0 0 0 0 0
0 0 0 0 0 0 0 -0 0 0 0 0 0 0 0 0 0 0 0 0 0 0 0 0 0 0 0 0 0 0 0 0 0 0 0 0 0 0 0 0 0 0 0 0 0 0 0 0 0 0 0 0 0 0
0 0 0 0 0 0 0 0 0 0 -0 -0 0 0 0 0 0 0 0 0 0 0 0 0 0 0 0 0 0 0 0 0 0 0 0 0 0 0 0 0 0 0 0 0 0 0 0 0 0 0 0 0 0 0
0 0 0 0 0 0 0 0 0 0 0 0 0 0 0 0 0 0 0 0 0 0 0 0 0 0 0 0 0 0 0 0 0 0 0 0 0 0 0 0 0 0 0 0 0 0 0 0 0 0 0 0 0 0
0 0 0 0 0 0 0 0 0 0 0 0 0 0 0 0 0 0 0 0 0 0 0 0 0 0 0 0 0 0 0 0 0 0 0 0 0 0 0 0 0 0 0 0 0 0 0 0 0 0 0 0 0 0
0 0 0 0 0 0 0 0 0 0 0 0 0 0 0 0 0 0 0 0 0 0 0 0 0 0 0 0 0 0 0 0 0 0 0 0 0 0 0 0 0 0 0 0 0 0 0 0 0 0 0 0 0 0
0 0 0 0 0 0 0 0 0 0 0 0 0 0 0 0 0 0 0 0 0 0 0 0 0 0 0 0 0 0 0 0 0 0 0 0 0 0 0 0 0 0 0 0 0 0 0 0 0 0 0 0 0 0
0 0 0 0 0 0 0 0 0 0 0 0 0 0 0 0 0 0 0 0 0 0 0 0 0 0 0 0 0 0 0 0 0 0 0 0 0 0 0 0 0 0 0 0 0 0 0 0 0 0 0 0 0 0
0 0 0 0 0 0 0 0 0 0 0 0 0 0 0 0 0 0 0 0 0 0 0 0 0 0 0 0 0 0 0 0 0 0 0 0 0 0 0 0 0 0 0 0 0 0 0 0 0 0 0 0 0 0
0 0 0 0 0 0 0 0 0 0 0 0 0 0 0 0 0 0 0 0 0 0 0 0 0 0 0 0 0 0 0 0 0 0 0 0 0 0 0 0 0 0 0 0 0 0 0 0 0 0 0 0 0 0
Wind_Speed_500mb
48 42 38 39 34 33 27 27 35 25 20 19 16 13 11 9 9 13 14 17 15 4 7 13 10 5 1 3 1 1 0 2 3 3 4 4 4 3 3 5 6 8 7 4 4 7 13 3 6 5 4 6 8 7
48 47 44 40 38 33 37 28 34 34 26 20 18 15 14 12 10 11 11 13 17 10 7 12 21 17 14 10 2 2 1 3 2 4 3 2 4 4 7 4 5 7 6 3 9 6 11 17 15 6 3 10 14 19
51 48 46 41 40 37 32 36 29 41 34 28 20 17 16 14 13 11 10 9 13 8 14 24 21 28 27 27 26 3 5 4 3 3 5 2 6 5 6 10 4 6 8 6 1 6 7 13 20 12 17 17 15 26
51 48 48 46 42 40 37 33 36 32 41 34 28 22 17 16 14 14 13 12 12 4 2 5 9 10 11 22 32 35 24 3 4 2 2 4 4 7 4 4 7 3 9 8 9 10 11 31 41 32 20 17 18 18
52 48 48 48 45 44 41 37 33 35 31 39 34 29 24 18 16 14 13 15 18 11 3 6 15 23 24 29 17 26 33 30 12 4 4 4 5 4 5 5 13 17 11 9 8 12 9 14 26 30 40 34 19 19
59 52 48 46 47 44 43 42 37 34 32 37 37 31 29 25 20 13 8 20 22 20 2 4 5 5 1 2 13 20 17 18 20 11 9 10 18 3 7 10 25 47 48 41 26 31 32 21 13 15 17 21 25 29
63 61 50 51 50 46 44 45 42 37 37 32 43 38 30 30 25 14 5 7 17 21 5 6 5 6 6 9 8 13 17 14 16 10 12 11 10 19 6 17 54 37 46 53 54 47 44 56 34 28 36 25 28 35
69 66 63 58 56 54 50 43 48 42 38 36 32 41 33 35 34 27 16 6 19 18 9 3 4 4 11 8 8 11 11 14 11 9 6 8 9 14 13 47 52 47 58 70 77 64 65 62 50 46 46 40 33 29
69 67 69 66 59 55 60 63 52 48 42 37 30 36 36 46 32 32 27 18 27 7 7 6 5 4 15 7 7 9 7 5 6 5 7 5 7 16 23 28 45 50 49 58 56 65 66 65 60 51 46 38 38 36
76 68 68 62 61 68 60 51 57 56 47 41 41 25 13 13 32 32 23 20 17 13 12 8 11 6 14 9 7 6 4 3 4 4 4 7 13 55 60 70 75 70 63 53 50 49 64 78 76 74 70 63 50 34
78 78 75 67 65 64 69 62 64 63 54 64 26 17 21 50 31 20 14 15 13 7 15 12 31 11 18 7 7 11 3 2 4 3 4 5 9 11 20 25 32 43 49 52 61 64 52 57 71 74 68 53 47 40
70 72 70 71 71 66 73 75 76 79 42 61 40 38 45 17 11 10 10 7 9 11 14 14 17 18 15 12 7 8 3 2 9 1 3 7 10 31 18 31 27 29 32 33 43 63 60 58 42 30 19 18 28 33
61 66 71 68 71 79 77 87 84 72 61 70 33 21 20 15 11 16 19 6 6 15 25 20 8 18 11 10 7 4 8 8 2 3 8 11 17 22 37 33 31 29 31 28 26 36 41 36 31 23 19 17 21 28
69 62 64 82 77 78 96 80 96 91 71 23 22 17 15 12 12 9 12 14 21 24 50 46 17 9 9 9 3 8 2 0 3 5 13 6 16 21 28 28 31 27 23 22 20 23 32 38 28 22 19 17 23 26
59 73 69 69 78 73 80 96 102 106 49 19 20 16 15 12 14 31 36 35 24 51 66 26 13 7 4 6 2 7 2 8 10 9 6 10 20 24 19 21 22 20 13 10 11 18 26 33 35 29 28 31 30 28
53 48 68 79 77 79 79 80 92 102 32 23 20 9 8 17 4 23 29 22 47 62 45 12 7 6 5 8 8 13 9 12 7 7 17 19 20 14 14 14 15 13 8 5 11 19 26 32 39 45 44 38 34 30
51 61 58 71 77 79 81 84 59 41 20 18 11 32 49 37 37 35 41 50 73 63 8 10 11 11 8 5 6 9 11 7 13 18 23 24 16 10 5 5 7 11 14 15 17 22 28 32 32 35 41 40 39 41
55 61 57 68 62 58 72 58 48 31 14 13 13 40 61 38 67 53 39 74 51 34 28 12 20 8 12 13 7 8 29 26 24 29 25 16 12 8 6 11 11 14 17 22 25 28 29 30 32 35 35 38 37 34
50 50 52 59 66 56 29 32 19 10 8 16 45 62 68 57 74 80 72 94 51 60 33 23 8 8 8 12 14 14 15 12 18 19 13 13 12 11 17 18 16 17 19 23 26 29 31 31 28 29 27 27 26 27
39 35 42 58 75 40 12 10 30 7 6 18 18 54 51 48 66 68 74 90 56 32 7 6 9 16 24 31 30 29 22 12 9 12 12 17 18 20 25 26 26 26 26 28 29 27 27 29 29 28 25 22 19 19
43 41 52 64 23 14 9 5 1 11 17 10 31 47 18 40 32 33 32 60 25 15 6 13 23 29 30 28 22 14 10 9 7 10 7 24 31 34 35 33 28 26 22 22 22 23 22 17 18 20 20 19 19 18
49 34 27 13 11 7 7 4 7 5 10 19 38 24 15 6 15 25 54 16 8 12 12 15 23 27 30 30 27 26 20 15 17 16 13 23 42 46 44 37 31 26 24 19 17 14 17 20 22 22 21 20 21 20
38 27 14 7 6 13 6 10 2 4 5 9 25 9 5 7 24 48 11 9 9 12 13 14 17 17 20 24 24 24 20 18 17 18 17 21 36 43 42 39 33 27 24 21 18 18 19 21 22 20 19 19 19 19
34 13 7 5 7 4 11 5 15 2 8 3 6 8 9 9 38 6 7 6 8 11 14 13 12 15 16 16 16 16 15 16 17 17 23 23 36 48 47 40 34 31 27 22 23 24 24 22 19 18 18 18 20 20
13 18 13 10 15 6 3 4 7 6 5 5 7 6 3 6 6 7 4 5 7 12 11 10 10 11 12 13 12 11 11 14 16 15 21 25 35 48 52 47 39 35 31 28 28 27 25 24 23 22 22 22 21 24
15 16 12 9 10 8 10 6 5 3 5 5 8 7 8 6 8 8 3 15 6 10 9 5 3 8 7 7 8 9 10 13 18 18 19 25 32 39 46 48 45 40 36 34 31 30 29 28 28 27 28 28 27 25
9 9 10 17 9 8 7 7 12 10 11 10 7 10 6 8 6 3 6 17 6 8 6 4 4 6 6 5 6 8 9 11 16 18 17 22 28 36 39 38 38 34 35 34 33 32 30 31 31 31 31 31 30 28
12 20 12 19 14 23 6 7 10 11 6 17 5 12 8 7 2 9 7 14 9 8 11 10 7 7 6 4 3 3 6 8 10 13 16 20 25 31 35 36 35 31 32 35 35 36 35 33 31 31 31 31 32 33
13 24 8 10 10 17 17 12 9 11 13 8 4 5 6 8 9 12 17 17 16 15 14 15 15 14 14 13 10 10 9 10 11 11 12 14 16 18 25 28 30 30 33 34 36 34 33 31 31 30 31 31 32 31
16 22 10 10 10 12 16 19 16 23 19 22 27 43 41 33 38 25 25 26 26 27 26 23 20 18 21 18 20 15 12 10 9 9 10 12 14 17 20 23 26 27 29 31 33 37 38 38 38 38 35 33 33 31
16 10 11 14 9 18 37 41 44 47 45 47 41 38 28 19 38 49 43 36 34 31 32 33 32 30 27 25 22 20 22 19 18 13 12 13 16 18 20 22 24 26 26 26 27 28 32 34 34 34 34 32 30 27
16 9 11 8 3 16 4 11 15 13 13 17 18 15 13 11 11 18 36 28 30 35 35 33 34 36 33 31 29 28 26 21 22 18 14 12 12 14 17 20 22 24 25 26 26 28 29 30 32 32 31 29 28 26
10 18 20 11 7 7 5 5 7 7 11 9 13 14 13 4 9 13 23 26 25 28 29 30 27 23 20 19 19 19 18 19 17 18 18 16 15 15 16 18 20 20 20 22 24 25 26 26 26 25 25 24 23 22
Wind_Direction_500mb
206 207 207 206 210 207 218 209 203 213 218 206 201 200 191 179 176 186 185 202 208 218 222 214 209 205 195 314 23 139 75 25 41 130 206 169 210 174 310 303 203 205 187 184 189 200 241 183 135 193 338 293 287 303
208 206 207 206 206 210 202 215 208 204 211 213 198 202 206 192 180 179 172 195 212 217 264 238 228 230 235 251 317 275 119 168 176 103 208 171 209 169 167 236 236 259 202 211 216 229 172 163 145 140 26 316 335 308
205 206 206 207 204 207 210 207 212 205 210 210 207 194 213 205 196 192 178 179 197 238 266 257 245 238 243 241 237 248 272 219 190 160 143 71 256 159 201 234 298 238 196 219 329 350 259 231 192 218 293 282 320 348
208 208 208 208 205 206 208 211 212 212 209 207 209 202 208 211 201 208 199 202 199 186 195 249 230 220 228 244 240 235 229 241 158 65 212 200 244 197 254 311 246 244 159 206 254 256 272 244 241 243 247 265 281 305
211 207 208 209 208 204 204 211 212 214 212 207 206 208 210 213 211 211 220 228 226 211 215 270 269 268 261 243 233 228 229 226 227 240 243 236 224 233 224 275 246 190 188 200 237 234 236 270 248 262 243 251 255 277
206 206 207 210 209 204 200 203 211 211 212 205 206 206 211 210 210 203 223 232 220 218 263 309 266 264 81 180 218 234 225 226 212 209 225 244 230 238 250 255 245 231 233 238 244 266 261 265 265 229 231 238 260 266
216 219 217 217 211 206 203 202 205 208 207 208 204 204 207 213 211 192 189 130 178 183 211 290 277 202 197 197 182 208 210 205 203 214 223 219 215 193 248 254 249 242 245 250 253 251 255 260 253 261 260 249 273 269
217 219 222 215 213 211 210 209 205 204 205 203 203 201 207 213 208 214 218 185 160 163 172 239 259 203 180 156 161 191 192 202 222 245 250 206 193 214 249 245 264 260 250 251 250 249 248 253 259 253 253 258 259 250
212 211 216 212 211 214 219 208 206 200 199 196 193 193 189 194 202 207 198 178 176 186 179 203 217 219 166 152 145 172 196 208 231 245 216 225 196 226 240 256 251 252 242 252 258 246 241 247 251 248 246 259 253 241
218 216 215 217 215 216 214 200 201 195 192 186 177 174 192 201 191 184 168 172 195 209 221 232 198 174 161 158 158 172 203 223 230 230 262 230 251 255 259 260 272 275 268 263 252 234 234 237 240 245 251 263 251 252
220 223 216 215 215 215 217 199 199 191 185 182 167 169 162 155 150 175 170 178 163 215 216 222 192 145 175 149 179 207 198 189 240 184 245 250 264 249 267 283 280 274 272 267 259 262 253 245 244 246 252 256 248 247
210 215 213 219 214 212 210 196 196 193 193 184 169 144 155 180 185 170 173 150 185 214 197 172 184 179 156 166 128 175 195 186 249 15 246 259 251 268 278 320 315 303 286 270 253 247 253 264 266 258 232 234 239 235
209 216 215 204 209 218 206 201 198 200 195 162 170 155 165 187 203 196 171 165 191 193 176 157 133 156 134 165 101 153 184 224 113 217 238 240 262 286 304 311 310 299 287 279 261 241 237 243 231 235 248 249 235 221
214 211 211 214 208 204 211 203 197 196 189 180 159 160 197 182 220 173 171 171 197 167 157 147 123 141 136 149 135 185 113 265 233 244 238 250 286 319 321 322 322 314 294 276 249 229 225 227 229 224 221 223 208 194
212 210 210 207 213 215 207 208 202 193 191 179 171 199 199 182 156 179 175 156 157 163 147 127 94 132 100 115 77 105 100 241 223 234 238 267 313 322 329 332 338 333 320 288 239 204 194 192 188 196 185 174 169 179
216 213 208 202 198 195 206 203 193 190 201 190 190 125 145 139 87 154 174 140 150 150 144 129 121 135 160 139 149 208 169 225 246 220 262 298 318 321 331 353 2 11 37 100 154 165 175 179 173 166 159 162 166 170
214 224 217 204 205 189 194 196 187 195 206 193 180 195 171 168 169 171 176 168 161 153 163 138 153 182 115 121 230 191 210 224 245 273 291 289 282 290 313 53 53 63 82 110 126 133 146 150 157 160 160 160 164 160
213 219 217 211 203 199 202 203 209 185 188 169 156 183 182 171 172 169 172 170 158 184 158 184 132 161 173 176 228 222 234 270 281 289 288 268 250 251 187 143 132 126 126 122 126 131 138 146 155 158 161 158 163 165
212 211 215 207 208 206 199 214 202 177 165 189 198 191 178 179 184 190 182 175 179 176 152 158 132 175 205 211 218 223 229 255 300 310 280 231 216 194 177 162 156 152 150 148 146 144 141 139 146 149 155 158 167 163
206 203 195 199 199 194 181 238 198 156 150 165 161 170 173 180 182 184 173 175 173 163 146 173 188 198 195 219 238 248 271 286 306 302 258 209 188 165 156 147 146 141 142 140 138 139 141 144 148 153 158 163 171 173
183 193 180 182 176 141 109 330 173 139 147 138 148 157 142 153 135 158 162 174 177 189 181 192 197 191 194 182 186 212 246 292 310 287 258 204 185 167 161 156 155 151 153 154 154 151 151 161 165 164 165 168 165 165
175 149 127 99 77 73 48 8 359 7 150 140 144 136 126 146 148 164 162 166 149 175 198 191 196 204 206 212 222 235 243 255 258 239 221 208 199 187 179 172 171 169 164 169 171 177 175 170 165 161 160 166 167 170
134 138 102 104 124 153 210 184 47 265 117 169 157 95 128 137 177 148 84 93 127 174 178 187 198 206 211 216 228 236 237 229 226 223 214 209 205 202 192 183 182 187 185 182 185 177 173 169 169 171 172 176 177 176
141 112 72 89 23 159 142 148 179 306 48 125 172 144 132 130 156 78 97 63 100 131 164 174 185 195 200 208 213 221 225 219 212 215 214 213 201 197 197 197 193 189 187 193 190 183 183 187 188 182 180 179 172 170
104 16 21 9 15 19 141 176 110 88 172 215 148 128 108 92 94 73 70 14 76 74 98 139 158 161 176 193 204 217 220 210 203 209 216 212 202 202 198 199 200 198 199 198 196 195 195 194 191 186 184 178 178 172
69 17 25 358 1 34 359 6 28 45 60 37 39 352 60 76 72 90 31 341 352 41 41 70 136 152 161 184 207 221 227 222 216 213 213 211 209 211 210 207 207 207 204 200 202 204 203 199 195 191 187 183 181 182
61 349 16 30 28 343 22 13 26 57 51 10 351 360 56 61 83 58 358 9 356 8 43 84 143 172 182 198 210 223 227 221 219 215 212 209 211 210 209 216 219 219 216 212 206 202 206 201 197 193 192 189 183 179
51 25 33 11 43 19 39 42 31 28 13 339 333 33 69 39 70 326 346 3 29 79 83 85 100 121 124 145 155 178 198 192 190 196 205 196 197 208 213 212 208 207 207 206 203 200 196 196 197 195 192 190 186 178
36 360 59 41 44 40 38 24 16 336 330 1 80 72 93 76 47 52 52 57 78 95 113 114 105 102 109 108 109 120 133 144 155 167 193 194 187 189 195 200 202 201 200 200 196 191 190 187 190 189 185 184 183 183
357 14 85 47 54 35 19 33 36 44 82 92 100 105 91 74 66 72 81 86 88 86 88 93 103 116 104 105 100 102 111 124 139 155 165 176 181 180 181 184 188 188 188 189 192 190 188 188 184 181 183 184 185 187
357 30 67 60 85 112 94 78 73 75 77 81 89 90 95 101 66 59 64 70 83 92 95 91 90 90 94 98 98 97 91 95 97 110 133 154 163 167 169 171 175 178 182 186 190 191 189 185 184 183 183 184 185 188
17 40 109 95 155 178 165 67 67 63 52 52 39 51 47 54 52 37 35 63 74 78 77 79 80 77 76 77 80 83 85 90 96 96 109 127 145 156 163 166 168 169 171 174 177 178 179 183 181 180 182 183 186 191
51 65 78 92 102 160 132 112 80 84 51 47 39 38 47 72 89 10 35 39 56 66 70 73 73 77 82 84 84 84 84 81 82 105 105 112 123 131 142 152 157 160 163 165 165 168 171 175 179 181 183 188 192 196
Wind_Speed_850mb
48 42 38 39 34 33 27 27 35 25 20 19 16 13 11 9 9 13 14 17 15 4 7 13 10 5 1 3 1 1 0 2 3 3 4 4 4 3 3 5 6 8 7 4 4 7 13 3 6 5 4 6 8 7
48 47 44 40 38 33 37 28 34 34 26 20 18 15 14 12 10 11 11 13 17 10 7 12 21 17 14 10 2 2 1 3 2 4 3 2 4 4 7 4 5 7 6 3 9 6 11 17 15 6 3 10 14 19
51 48 46 41 40 37 32 36 29 41 34 28 20 17 16 14 13 11 10 9 13 8 14 24 21 28 27 27 26 3 5 4 3 3 5 2 6 5 6 10 4 6 8 6 1 6 7 13 20 12 17 17 15 26
51 48 48 46 42 40 37 33 36 32 41 34 28 22 17 16 14 14 13 12 12 4 2 5 9 10 11 22 32 35 24 3 4 2 2 4 4 7 4 4 7 3 9 8 9 10 11 31 41 32 20 17 18 18
52 48 48 48 45 44 41 37 33 35 31 39 34 29 24 18 16 14 13 15 18 11 3 6 15 23 24 29 17 26 33 30 12 4 4 4 5 4 5 5 13 17 11 9 8 12 9 14 26 30 40 34 19 19
59 52 48 46 47 44 43 42 37 34 32 37 37 31 29 25 20 13 8 20 22 20 2 4 5 5 1 2 13 20 17 18 20 11 9 10 18 3 7 10 25 47 48 41 26 31 32 21 13 15 17 21 25 29
63 61 50 51 50 46 44 45 42 37 37 32 43 38 30 30 25 14 5 7 17 21 5 6 5 6 6 9 8 13 17 14 16 10 12 11 10 19 6 17 54 37 46 53 54 47 44 56 34 28 36 25 28 35
69 66 63 58 56 54 50 43 48 42 38 36 32 41 33 35 34 27 16 6 19 18 9 3 4 4 11 8 8 11 11 14 11 9 6 8 9 14 13 47 52 47 58 70 77 64 65 62 50 46 46 40 33 29
69 67 69 66 59 55 60 63 52 48 42 37 30 36 36 46 32 32 27 18 27 7 7 6 5 4 15 7 7 9 7 5 6 5 7 5 7 16 23 28 45 50 49 58 56 65 66 65 60 51 46 38 38 36
76 68 68 62 61 68 60 51 57 56 47 41 41 25 13 13 32 32 23 20 17 13 12 8 11 6 14 9 7 6 4 3 4 4 4 7 13 55 60 70 75 70 63 53 50 49 64 78 76 74 70 63 50 34
78 78 75 67 65 64 69 62 64 63 54 64 26 17 21 50 31 20 14 15 13 7 15 12 31 11 18 7 7 11 3 2 4 3 4 5 9 11 20 25 32 43 49 52 61 64 52 57 71 74 68 53 47 40
70 72 70 71 71 66 73 75 76 79 42 61 40 38 45 17 11 10 10 7 9 11 14 14 17 18 15 12 7 8 3 2 9 1 3 7 10 31 18 31 27 29 32 33 43 63 60 58 42 30 19 18 28 33
61 66 71 68 71 79 77 87 84 72 61 70 33 21 20 15 11 16 19 6 6 15 25 20 8 18 11 10 7 4 8 8 2 3 8 11 17 22 37 33 31 29 31 28 26 36 41 36 31 23 19 17 21 28
69 62 64 82 77 78 96 80 96 91 71 23 22 17 15 12 12 9 12 14 21 24 50 46 17 9 9 9 3 8 2 0 3 5 13 6 16 21 28 28 31 27 23 22 20 23 32 38 28 22 19 17 23 26
59 73 69 69 78 73 80 96 102 106 49 19 20 16 15 12 14 31 36 35 24 51 66 26 13 7 4 6 2 7 2 8 10 9 6 10 20 24 19 21 22 20 13 10 11 18 26 33 35 29 28 31 30 28
53 48 68 79 77 79 79 80 92 102 32 23 20 9 8 17 4 23 29 22 47 62 45 12 7 6 5 8 8 13 9 12 7 7 17 19 20 14 14 14 15 13 8 5 11 19 26 32 39 45 44 38 34 30
51 61 58 71 77 79 81 84 59 41 20 18 11 32 49 37 37 35 41 50 73 63 8 10 11 11 8 5 6 9 11 7 13 18 23 24 16 10 5 5 7 11 14 15 17 22 28 32 32 35 41 40 39 41
55 61 57 68 62 58 72 58 48 31 14 13 13 40 61 38 67 53 39 74 51 34 28 12 20 8 12 13 7 8 29 26 24 29 25 16 12 8 6 11 11 14 17 22 25 28 29 30 32 35 35 38 37 34
50 50 52 59 66 56 29 32 19 10 8 16 45 62 68 57 74 80 72 94 51 60 33 23 8 8 8 12 14 14 15 12 18 19 13 13 12 11 17 18 16 17 19 23 26 29 31 31 28 29 27 27 26 27
39 35 42 58 75 40 12 10 30 7 6 18 18 54 51 48 66 68 74 90 56 32 7 6 9 16 24 31 30 29 22 12 9 12 12 17 18 20 25 26 26 26 26 28 29 27 27 29 29 28 25 22 19 19
43 41 52 64 23 14 9 5 1 11 17 10 31 47 18 40 32 33 32 60 25 15 6 13 23 29 30 28 22 14 10 9 7 10 7 24 31 34 35 33 28 26 22 22 22 23 22 17 18 20 20 19 19 18
49 34 27 13 11 7 7 4 7 5 10 19 38 24 15 6 15 25 54 16 8 12 12 15 23 27 30 30 27 26 20 15 17 16 13 23 42 46 44 37 31 26 24 19 17 14 17 20 22 22 21 20 21 20
38 27 14 7 6 13 6 10 2 4 5 9 25 9 5 7 24 48 11 9 9 12 13 14 17 17 20 24 24 24 20 18 17 18 17 21 36 43 42 39 33 27 24 21 18 18 19 21 22 20 19 19 19 19
34 13 7 5 7 4 11 5 15 2 8 3 6 8 9 9 38 6 7 6 8 11 14 13 12 15 16 16 16 16 15 16 17 17 23 23 36 48 47 40 34 31 27 22 23 24 24 22 19 18 18 18 20 20
13 18 13 10 15 6 3 4 7 6 5 5 7 6 3 6 6 7 4 5 7 12 11 10 10 11 12 13 12 11 11 14 16 15 21 25 35 48 52 47 39 35 31 28 28 27 25 24 23 22 22 22 21 24
15 16 12 9 10 8 10 6 5 3 5 5 8 7 8 6 8 8 3 15 6 10 9 5 3 8 7 7 8 9 10 13 18 18 19 25 32 39 46 48 45 40 36 34 31 30 29 28 28 27 28 28 27 25
9 9 10 17 9 8 7 7 12 10 11 10 7 10 6 8 6 3 6 17 6 8 6 4 4 6 6 5 6 8 9 11 16 18 17 22 28 36 39 38 38 34 35 34 33 32 30 31 31 31 31 31 30 28
12 20 12 19 14 23 6 7 10 11 6 17 5 12 8 7 2 9 7 14 9 8 11 10 7 7 6 4 3 3 6 8 10 13 16 20 25 31 35 36 35 31 32 35 35 36 35 33 31 31 31 31 32 33
13 24 8 10 10 17 17 12 9 11 13 8 4 5 6 8 9 12 17 17 16 15 14 15 15 14 14 13 10 10 9 10 11 11 12 14 16 18 25 28 30 30 33 34 36 34 33 31 31 30 31 31 32 31
16 22 10 10 10 12 16 19 16 23 19 22 27 43 41 33 38 25 25 26 26 27 26 23 20 18 21 18 20 15 12 10 9 9 10 12 14 17 20 23 26 27 29 31 33 37 38 38 38 38 35 33 33 31
16 10 11 14 9 18 37 41 44 47 45 47 41 38 28 19 38 49 43 36 34 31 32 33 32 30 27 25 22 20 22 19 18 13 12 13 16 18 20 22 24 26 26 26 27 28 32 34 34 34 34 32 30 27
16 9 11 8 3 16 4 11 15 13 13 17 18 15 13 11 11 18 36 28 30 35 35 33 34 36 33 31 29 28 26 21 22 18 14 12 12 14 17 20 22 24 25 26 26 28 29 30 32 32 31 29 28 26
10 18 20 11 7 7 5 5 7 7 11 9 13 14 13 4 9 13 23 26 25 28 29 30 27 23 20 19 19 19 18 19 17 18 18 16 15 15 16 18 20 20 20 22 24 25 26 26 26 25 25 24 23 22
Wind_Direction_850mb
206 207 207 206 210 207 218 209 203 213 218 206 201 200 191 179 176 186 185 202 208 218 222 214 209 205 195 314 23 139 75 25 41 130 206 169 210 174 310 303 203 205 187 184 189 200 241 183 135 193 338 293 287 303
208 206 207 206 206 210 202 215 208 204 211 213 198 202 206 192 180 179 172 195 212 217 264 238 228 230 235 251 317 275 119 168 176 103 208 171 209 169 167 236 236 259 202 211 216 229 172 163 145 140 26 316 335 308
205 206 206 207 204 207 210 207 212 205 210 210 207 194 213 205 196 192 178 179 197 238 266 257 245 238 243 241 237 248 272 219 190 160 143 71 256 159 201 234 298 238 196 219 329 350 259 231 192 218 293 282 320 348
208 208 208 208 205 206 208 211 212 212 209 207 209 202 208 211 201 208 199 202 199 186 195 249 230 220 228 244 240 235 229 241 158 65 212 200 244 197 254 311 246 244 159 206 254 256 272 244 241 243 247 265 281 305
211 207 208 209 208 204 204 211 212 214 212 207 206 208 210 213 211 211 220 228 226 211 215 270 269 268 261 243 233 228 229 226 227 240 243 236 224 233 224 275 246 190 188 200 237 234 236 270 248 262 243 251 255 277
206 206 207 210 209 204 200 203 211 211 212 205 206 206 211 210 210 203 223 232 220 218 263 309 266 264 81 180 218 234 225 226 212 209 225 244 230 238 250 255 245 231 233 238 244 266 261 265 265 229 231 238 260 266
216 219 217 217 211 206 203 202 205 208 207 208 204 204 207 213 211 192 189 130 178 183 211 290 277 202 197 197 182 208 210 205 203 214 223 219 215 193 248 254 249 242 245 250 253 251 255 260 253 261 260 249 273 269
217 219 222 215 213 211 210 209 205 204 205 203 203 201 207 213 208 214 218 185 160 163 172 239 259 203 180 156 161 191 192 202 222 245 250 206 193 214 249 245 264 260 250 251 250 249 248 253 259 253 253 258 259 250
212 211 216 212 211 214 219 208 206 200 199 196 193 193 189 194 202 207 198 178 176 186 179 203 217 219 166 152 145 172 196 208 231 245 216 225 196 226 240 256 251 252 242 252 258 246 241 247 251 248 246 259 253 241
218 216 215 217 215 216 214 200 201 195 192 186 177 174 192 201 191 184 168 172 195 209 221 232 198 174 161 158 158 172 203 223 230 230 262 230 251 255 259 260 272 275 268 263 252 234 234 237 240 245 251 263 251 252
220 223 216 215 215 215 217 199 199 191 185 182 167 169 162 155 150 175 170 178 163 215 216 222 192 145 175 149 179 207 198 189 240 184 245 250 264 249 267 283 280 274 272 267 259 262 253 245 244 246 252 256 248 247
210 215 213 219 214 212 210 196 196 193 193 184 169 144 155 180 185 170 173 150 185 214 197 172 184 179 156 166 128 175 195 186 249 15 246 259 251 268 278 320 315 303 286 270 253 247 253 264 266 258 232 234 239 235
209 216 215 204 209 218 206 201 198 200 195 162 170 155 165 187 203 196 171 165 191 193 176 157 133 156 134 165 101 153 184 224 113 217 238 240 262 286 304 311 310 299 287 279 261 241 237 243 231 235 248 249 235 221
214 211 211 214 208 204 211 203 197 196 189 180 159 160 197 182 220 173 171 171 197 167 157 147 123 141 136 149 135 185 113 265 233 244 238 250 286 319 321 322 322 314 294 276 249 229 225 227 229 224 221 223 208 194
212 210 210 207 213 215 207 208 202 193 191 179 171 199 199 182 156 179 175 156 157 163 147 127 94 132 100 115 77 105 100 241 223 234 238 267 313 322 329 332 338 333 320 288 239 204 194 192 188 196 185 174 169 179
216 213 208 202 198 195 206 203 193 190 201 190 190 125 145 139 87 154 174 140 150 150 144 129 121 135 160 139 149 208 169 225 246 220 262 298 318 321 331 353 2 11 37 100 154 165 175 179 173 166 159 162 166 170
214 224 217 204 205 189 194 196 187 195 206 193 180 195 171 168 169 171 176 168 161 153 163 138 153 182 115 121 230 191 210 224 245 273 291 289 282 290 313 53 53 63 82 110 126 133 146 150 157 160 160 160 164 160
213 219 217 211 203 199 202 203 209 185 188 169 156 183 182 171 172 169 172 170 158 184 158 184 132 161 173 176 228 222 234 270 281 289 288 268 250 251 187 143 132 126 126 122 126 131 138 146 155 158 161 158 163 165
212 211 215 207 208 206 199 214 202 177 165 189 198 191 178 179 184 190 182 175 179 176 152 158 132 175 205 211 218 223 229 255 300 310 280 231 216 194 177 162 156 152 150 148 146 144 141 139 146 149 155 158 167 163
206 203 195 199 199 194 181 238 198 156 150 165 161 170 173 180 182 184 173 175 173 163 146 173 188 198 195 219 238 248 271 286 306 302 258 209 188 165 156 147 146 141 142 140 138 139 141 144 148 153 158 163 171 173
183 193 180 182 176 141 109 330 173 139 147 138 148 157 142 153 135 158 162 174 177 189 181 192 197 191 194 182 186 212 246 292 310 287 258 204 185 167 161 156 155 151 153 154 154 151 151 161 165 164 165 168 165 165
175 149 127 99 77 73 48 8 359 7 150 140 144 136 126 146 148 164 162 166 149 175 198 191 196 204 206 212 222 235 243 255 258 239 221 208 199 187 179 172 171 169 164 169 171 177 175 170 165 161 160 166 167 170
134 138 102 104 124 153 210 184 47 265 117 169 157 95 128 137 177 148 84 93 127 174 178 187 198 206 211 216 228 236 237 229 226 223 214 209 205 202 192 183 182 187 185 182 185 177 173 169 169 171 172 176 177 176
141 112 72 89 23 159 142 148 179 306 48 125 172 144 132 130 156 78 97 63 100 131 164 174 185 195 200 208 213 221 225 219 212 215 214 213 201 197 197 197 193 189 187 193 190 183 183 187 188 182 180 179 172 170
104 16 21 9 15 19 141 176 110 88 172 215 148 128 108 92 94 73 70 14 76 74 98 139 158 161 176 193 204 217 220 210 203 209 216 212 202 202 198 199 200 198 199 198 196 195 195 194 191 186 184 178 178 172
69 17 25 358 1 34 359 6 28 45 60 37 39 352 60 76 72 90 31 341 352 41 41 70 136 152 161 184 207 221 227 222 216 213 213 211 209 211 210 207 207 207 204 200 202 204 203 199 195 191 187 183 181 182
61 349 16 30 28 343 22 13 26 57 51 10 351 360 56 61 83 58 358 9 356 8 43 84 143 172 182 198 210 223 227 221 219 215 212 209 211 210 209 216 219 219 216 212 206 202 206 201 197 193 192 189 183 179
51 25 33 11 43 19 39 42 31 28 13 339 333 33 69 39 70 326 346 3 29 79 83 85 100 121 124 145 155 178 198 192 190 196 205 196 197 208 213 212 208 207 207 206 203 200 196 196 197 195 192 190 186 178
36 360 59 41 44 40 38 24 16 336 330 1 80 72 93 76 47 52 52 57 78 95 113 114 105 102 109 108 109 120 133 144 155 167 193 194 187 189 195 200 202 201 200 200 196 191 190 187 190 189 185 184 183 183
357 14 85 47 54 35 19 33 36 44 82 92 100 105 91 74 66 72 81 86 88 86 88 93 103 116 104 105 100 102 111 124 139 155 165 176 181 180 181 184 188 188 188 189 192 190 188 188 184 181 183 184 185 187
357 30 67 60 85 112 94 78 73 75 77 81 89 90 95 101 66 59 64 70 83 92 95 91 90 90 94 98 98 97 91 95 97 110 133 154 163 167 169 171 175 178 182 186 190 191 189 185 184 183 183 184 185 188
17 40 109 95 155 178 165 67 67 63 52 52 39 51 47 54 52 37 35 63 74 78 77 79 80 77 76 77 80 83 85 90 96 96 109 127 145 156 163 166 168 169 171 174 177 178 179 183 181 180 182 183 186 191
51 65 78 92 102 160 132 112 80 84 51 47 39 38 47 72 89 10 35 39 56 66 70 73 73 77 82 84 84 84 84 81 82 105 105 112 123 131 142 152 157 160 163 165 165 168 171 175 179 181 183 188 192 196